Year,Month,Day,Hour,Minute,Value (Times are PST for windspeed in km/hr)
2020,02,01,00,00,17.60
2020,02,01,00,01,16.30
2020,02,01,00,02,15.40
2020,02,01,00,03,20.00
2020,02,01,00,04,20.10
2020,02,01,00,05,15.00
2020,02,01,00,06,24.40
2020,02,01,00,07,20.60
2020,02,01,00,08,19.80
2020,02,01,00,09,18.40
2020,02,01,00,10,19.70
2020,02,01,00,11,20.30
2020,02,01,00,12,22.60
2020,02,01,00,13,21.30
2020,02,01,00,14,20.00
2020,02,01,00,15,18.30
2020,02,01,00,16,10.00
2020,02,01,00,17,11.30
2020,02,01,00,18,12.10
2020,02,01,00,19,14.50
2020,02,01,00,20,14.10
2020,02,01,00,21,10.30
2020,02,01,00,22,17.20
2020,02,01,00,23,24.60
2020,02,01,00,24,15.40
2020,02,01,00,25,14.90
2020,02,01,00,26,12.80
2020,02,01,00,27,20.70
2020,02,01,00,28,21.20
2020,02,01,00,29,22.20
2020,02,01,00,30,16.70
2020,02,01,00,31,14.40
2020,02,01,00,32,11.30
2020,02,01,00,33,16.40
2020,02,01,00,34,19.20
2020,02,01,00,35,24.20
2020,02,01,00,36,14.60
2020,02,01,00,37,26.50
2020,02,01,00,38,24.40
2020,02,01,00,39,18.70
2020,02,01,00,40,20.20
2020,02,01,00,41,20.30
2020,02,01,00,42,21.70
2020,02,01,00,43,28.70
2020,02,01,00,44,20.90
2020,02,01,00,45,20.90
2020,02,01,00,46,20.90
2020,02,01,00,47,20.90
2020,02,01,00,48,20.90
2020,02,01,00,49,19.60
2020,02,01,00,50,22.50
2020,02,01,00,51,30.10
2020,02,01,00,52,30.60
2020,02,01,00,53,17.90
2020,02,01,00,54,20.80
2020,02,01,00,55,28.40
2020,02,01,00,56,28.60
2020,02,01,00,57,22.00
2020,02,01,00,58,16.50
2020,02,01,00,59,20.80
2020,02,01,01,00,20.70
2020,02,01,01,01,21.30
2020,02,01,01,02,23.10
2020,02,01,01,03,20.90
2020,02,01,01,04,22.20
2020,02,01,01,05,23.30
2020,02,01,01,06,17.60
2020,02,01,01,07,18.90
2020,02,01,01,08,15.70
2020,02,01,01,09,16.30
2020,02,01,01,10,31.60
2020,02,01,01,11,26.20
2020,02,01,01,12,18.10
2020,02,01,01,13,18.70
2020,02,01,01,14,21.60
2020,02,01,01,15,22.80
2020,02,01,01,16,30.80
2020,02,01,01,17,24.10
2020,02,01,01,18,29.20
2020,02,01,01,19,21.40
2020,02,01,01,20,28.20
2020,02,01,01,21,20.30
2020,02,01,01,22,24.60
2020,02,01,01,23,27.30
2020,02,01,01,24,29.30
2020,02,01,01,25,33.90
2020,02,01,01,26,33.30
2020,02,01,01,27,36.20
2020,02,01,01,28,29.20
2020,02,01,01,29,32.30
2020,02,01,01,30,29.90
2020,02,01,01,31,42.20
2020,02,01,01,32,28.50
2020,02,01,01,33,29.70
2020,02,01,01,34,29.70
2020,02,01,01,35,18.10
2020,02,01,01,36,19.70
2020,02,01,01,37,23.60
2020,02,01,01,38,27.00
2020,02,01,01,39,20.20
2020,02,01,01,40,49.90
2020,02,01,01,41,53.10
2020,02,01,01,42,53.10
2020,02,01,01,43,53.10
2020,02,01,01,44,38.90
2020,02,01,01,45,33.30
2020,02,01,01,46,35.70
2020,02,01,01,47,38.60
2020,02,01,01,48,27.90
2020,02,01,01,49,32.60
2020,02,01,01,50,34.90
2020,02,01,01,51,33.30
2020,02,01,01,52,34.20
2020,02,01,01,53,19.80
2020,02,01,01,54,34.90
2020,02,01,01,55,26.10
2020,02,01,01,56,37.80
2020,02,01,01,57,30.40
2020,02,01,01,58,33.40
2020,02,01,01,59,29.30
2020,02,01,02,00,33.70
2020,02,01,02,01,26.80
2020,02,01,02,02,14.80
2020,02,01,02,03,39.70
2020,02,01,02,04,28.30
2020,02,01,02,05,32.60
2020,02,01,02,06,22.10
2020,02,01,02,07,22.50
2020,02,01,02,08,29.30
2020,02,01,02,09,33.90
2020,02,01,02,10,32.50
2020,02,01,02,11,34.50
2020,02,01,02,12,18.50
2020,02,01,02,13,21.50
2020,02,01,02,14,27.20
2020,02,01,02,15,21.00
2020,02,01,02,16,21.90
2020,02,01,02,17,25.50
2020,02,01,02,18,35.20
2020,02,01,02,19,21.10
2020,02,01,02,20,27.90
2020,02,01,02,21,17.10
2020,02,01,02,22,23.40
2020,02,01,02,23,26.70
2020,02,01,02,24,28.00
2020,02,01,02,25,24.80
2020,02,01,02,26,21.10
2020,02,01,02,27,14.90
2020,02,01,02,28,23.70
2020,02,01,02,29,25.20
2020,02,01,02,30,20.30
2020,02,01,02,31,17.40
2020,02,01,02,32,23.70
2020,02,01,02,33,26.10
2020,02,01,02,34,16.20
2020,02,01,02,35,16.40
2020,02,01,02,36,13.30
2020,02,01,02,37,24.90
2020,02,01,02,38,21.70
2020,02,01,02,39,19.50
2020,02,01,02,40,22.20
2020,02,01,02,41,27.60
2020,02,01,02,42,14.20
2020,02,01,02,43,19.90
2020,02,01,02,44,18.80
2020,02,01,02,45,19.10
2020,02,01,02,46,22.90
2020,02,01,02,47,19.80
2020,02,01,02,48,14.10
2020,02,01,02,49,25.70
2020,02,01,02,50,22.20
2020,02,01,02,51,17.90
2020,02,01,02,52,11.10
2020,02,01,02,53,15.60
2020,02,01,02,54,16.40
2020,02,01,02,55,12.00
2020,02,01,02,56,14.40
2020,02,01,02,57,14.90
2020,02,01,02,58,16.90
2020,02,01,02,59,9.40
2020,02,01,03,00,16.00
2020,02,01,03,01,14.60
2020,02,01,03,02,17.70
2020,02,01,03,03,18.60
2020,02,01,03,04,12.00
2020,02,01,03,05,13.00
2020,02,01,03,06,11.90
2020,02,01,03,07,8.40
2020,02,01,03,08,7.40
2020,02,01,03,09,9.10
2020,02,01,03,10,10.70
2020,02,01,03,11,7.80
2020,02,01,03,12,5.40
2020,02,01,03,13,5.70
2020,02,01,03,14,5.90
2020,02,01,03,15,7.00
2020,02,01,03,16,7.40
2020,02,01,03,17,6.50
2020,02,01,03,18,4.70
2020,02,01,03,19,5.10
2020,02,01,03,20,3.30
2020,02,01,03,21,3.10
2020,02,01,03,22,3.70
2020,02,01,03,23,3.80
2020,02,01,03,24,2.50
2020,02,01,03,25,2.90
2020,02,01,03,26,4.10
2020,02,01,03,27,3.30
2020,02,01,03,28,3.80
2020,02,01,03,29,4.90
2020,02,01,03,30,5.40
2020,02,01,03,31,6.50
2020,02,01,03,32,6.70
2020,02,01,03,33,5.80
2020,02,01,03,34,3.20
2020,02,01,03,35,4.70
2020,02,01,03,36,4.40
2020,02,01,03,37,4.70
2020,02,01,03,38,5.40
2020,02,01,03,39,6.10
2020,02,01,03,40,5.10
2020,02,01,03,41,6.10
2020,02,01,03,42,5.30
2020,02,01,03,43,5.30
2020,02,01,03,44,4.10
2020,02,01,03,45,6.70
2020,02,01,03,46,6.70
2020,02,01,03,47,15.10
2020,02,01,03,48,8.90
2020,02,01,03,49,12.60
2020,02,01,03,50,8.60
2020,02,01,03,51,6.70
2020,02,01,03,52,4.10
2020,02,01,03,53,7.80
2020,02,01,03,54,7.20
2020,02,01,03,55,9.70
2020,02,01,03,56,24.70
2020,02,01,03,57,10.60
2020,02,01,03,58,13.50
2020,02,01,03,59,14.10
2020,02,01,04,00,10.80
2020,02,01,04,01,8.10
2020,02,01,04,02,8.40
2020,02,01,04,03,6.40
2020,02,01,04,04,6.10
2020,02,01,04,05,7.70
2020,02,01,04,06,11.60
2020,02,01,04,07,6.40
2020,02,01,04,08,4.40
2020,02,01,04,09,10.60
2020,02,01,04,10,11.00
2020,02,01,04,11,9.70
2020,02,01,04,12,11.50
2020,02,01,04,13,8.50
2020,02,01,04,14,7.80
2020,02,01,04,15,8.90
2020,02,01,04,16,8.80
2020,02,01,04,17,9.20
2020,02,01,04,18,8.70
2020,02,01,04,19,14.00
2020,02,01,04,20,9.50
2020,02,01,04,21,9.80
2020,02,01,04,22,10.10
2020,02,01,04,23,10.10
2020,02,01,04,24,11.90
2020,02,01,04,25,8.10
2020,02,01,04,26,8.10
2020,02,01,04,27,15.30
2020,02,01,04,28,13.60
2020,02,01,04,29,14.00
2020,02,01,04,30,11.30
2020,02,01,04,31,13.00
2020,02,01,04,32,15.40
2020,02,01,04,33,18.10
2020,02,01,04,34,13.80
2020,02,01,04,35,16.40
2020,02,01,04,36,14.60
2020,02,01,04,37,12.50
2020,02,01,04,38,12.20
2020,02,01,04,39,12.90
2020,02,01,04,40,15.90
2020,02,01,04,41,10.30
2020,02,01,04,42,13.80
2020,02,01,04,43,18.20
2020,02,01,04,44,14.60
2020,02,01,04,45,14.20
2020,02,01,04,46,17.20
2020,02,01,04,47,23.50
2020,02,01,04,48,18.00
2020,02,01,04,49,13.00
2020,02,01,04,50,16.10
2020,02,01,04,51,16.10
2020,02,01,04,52,13.60
2020,02,01,04,53,12.40
2020,02,01,04,54,14.00
2020,02,01,04,55,9.50
2020,02,01,04,56,19.70
2020,02,01,04,57,15.90
2020,02,01,04,58,9.60
2020,02,01,04,59,8.10
2020,02,01,05,00,7.70
2020,02,01,05,01,10.70
2020,02,01,05,02,13.80
2020,02,01,05,03,13.00
2020,02,01,05,04,7.10
2020,02,01,05,05,9.20
2020,02,01,05,06,9.30
2020,02,01,05,07,10.30
2020,02,01,05,08,8.50
2020,02,01,05,09,8.60
2020,02,01,05,10,8.70
2020,02,01,05,11,14.00
2020,02,01,05,12,12.90
2020,02,01,05,13,13.50
2020,02,01,05,14,11.70
2020,02,01,05,15,12.50
2020,02,01,05,16,14.20
2020,02,01,05,17,11.30
2020,02,01,05,18,11.30
2020,02,01,05,19,11.30
2020,02,01,05,20,11.30
2020,02,01,05,21,11.30
2020,02,01,05,22,11.30
2020,02,01,05,23,11.30
2020,02,01,05,24,11.30
2020,02,01,05,25,17.00
2020,02,01,05,26,16.10
2020,02,01,05,27,11.90
2020,02,01,05,28,11.60
2020,02,01,05,29,13.70
2020,02,01,05,30,10.30
2020,02,01,05,31,9.30
2020,02,01,05,32,10.00
2020,02,01,05,33,9.90
2020,02,01,05,34,12.30
2020,02,01,05,35,13.00
2020,02,01,05,36,10.10
2020,02,01,05,37,12.90
2020,02,01,05,38,11.10
2020,02,01,05,39,8.00
2020,02,01,05,40,8.70
2020,02,01,05,41,10.50
2020,02,01,05,42,7.10
2020,02,01,05,43,4.60
2020,02,01,05,44,7.70
2020,02,01,05,45,11.60
2020,02,01,05,46,8.40
2020,02,01,05,47,9.80
2020,02,01,05,48,12.60
2020,02,01,05,49,16.50
2020,02,01,05,50,14.00
2020,02,01,05,51,11.90
2020,02,01,05,52,13.80
2020,02,01,05,53,15.60
2020,02,01,05,54,7.00
2020,02,01,05,55,10.60
2020,02,01,05,56,12.90
2020,02,01,05,57,12.20
2020,02,01,05,58,9.60
2020,02,01,05,59,10.20
2020,02,01,06,00,11.40
2020,02,01,06,01,8.80
2020,02,01,06,02,11.90
2020,02,01,06,03,11.70
2020,02,01,06,04,13.90
2020,02,01,06,05,5.80
2020,02,01,06,06,10.00
2020,02,01,06,07,10.00
2020,02,01,06,08,9.40
2020,02,01,06,09,9.70
2020,02,01,06,10,12.40
2020,02,01,06,11,10.80
2020,02,01,06,12,8.10
2020,02,01,06,13,5.50
2020,02,01,06,14,8.60
2020,02,01,06,15,10.90
2020,02,01,06,16,8.50
2020,02,01,06,17,6.40
2020,02,01,06,18,7.70
2020,02,01,06,19,9.00
2020,02,01,06,20,3.90
2020,02,01,06,21,3.30
2020,02,01,06,22,5.80
2020,02,01,06,23,11.50
2020,02,01,06,24,10.40
2020,02,01,06,25,5.60
2020,02,01,06,26,2.00
2020,02,01,06,27,1.90
2020,02,01,06,28,4.40
2020,02,01,06,29,4.50
2020,02,01,06,30,1.60
2020,02,01,06,31,4.40
2020,02,01,06,32,5.60
2020,02,01,06,33,4.50
2020,02,01,06,34,9.00
2020,02,01,06,35,7.60
2020,02,01,06,36,4.40
2020,02,01,06,37,7.10
2020,02,01,06,38,4.60
2020,02,01,06,39,2.10
2020,02,01,06,40,2.00
2020,02,01,06,41,5.20
2020,02,01,06,42,10.50
2020,02,01,06,43,10.20
2020,02,01,06,44,10.00
2020,02,01,06,45,10.20
2020,02,01,06,46,7.40
2020,02,01,06,47,8.50
2020,02,01,06,48,9.00
2020,02,01,06,49,7.10
2020,02,01,06,50,5.90
2020,02,01,06,51,5.80
2020,02,01,06,52,8.20
2020,02,01,06,53,4.20
2020,02,01,06,54,5.60
2020,02,01,06,55,4.80
2020,02,01,06,56,9.10
2020,02,01,06,57,9.60
2020,02,01,06,58,9.60
2020,02,01,06,59,9.60
2020,02,01,07,00,9.60
2020,02,01,07,01,9.60
2020,02,01,07,02,9.80
2020,02,01,07,03,10.40
2020,02,01,07,04,8.80
2020,02,01,07,05,7.90
2020,02,01,07,06,5.70
2020,02,01,07,07,7.30
2020,02,01,07,08,2.20
2020,02,01,07,09,1.50
2020,02,01,07,10,1.00
2020,02,01,07,11,1.60
2020,02,01,07,12,1.50
2020,02,01,07,13,1.30
2020,02,01,07,14,2.30
2020,02,01,07,15,6.60
2020,02,01,07,16,3.60
2020,02,01,07,17,1.90
2020,02,01,07,18,2.80
2020,02,01,07,19,4.20
2020,02,01,07,20,4.60
2020,02,01,07,21,6.50
2020,02,01,07,22,3.10
2020,02,01,07,23,1.50
2020,02,01,07,24,3.10
2020,02,01,07,25,3.30
2020,02,01,07,26,1.80
2020,02,01,07,27,2.40
2020,02,01,07,28,3.50
2020,02,01,07,29,5.90
2020,02,01,07,30,2.10
2020,02,01,07,31,3.60
2020,02,01,07,32,2.10
2020,02,01,07,33,3.10
2020,02,01,07,34,2.80
2020,02,01,07,35,0.80
2020,02,01,07,36,0.60
2020,02,01,07,37,2.50
2020,02,01,07,38,8.70
2020,02,01,07,39,10.50
2020,02,01,07,40,3.20
2020,02,01,07,41,3.10
2020,02,01,07,42,2.20
2020,02,01,07,43,3.20
2020,02,01,07,44,3.20
2020,02,01,07,45,3.20
2020,02,01,07,46,3.00
2020,02,01,07,47,2.40
2020,02,01,07,48,2.00
2020,02,01,07,49,0.80
2020,02,01,07,50,3.10
2020,02,01,07,51,4.40
2020,02,01,07,52,5.50
2020,02,01,07,53,6.90
2020,02,01,07,54,1.60
2020,02,01,07,55,1.20
2020,02,01,07,56,0.60
2020,02,01,07,57,2.50
2020,02,01,07,58,7.40
2020,02,01,07,59,6.10
2020,02,01,08,00,8.20
2020,02,01,08,01,4.40
2020,02,01,08,02,10.20
2020,02,01,08,03,11.00
2020,02,01,08,04,9.10
2020,02,01,08,05,8.30
2020,02,01,08,06,6.80
2020,02,01,08,07,7.30
2020,02,01,08,08,3.10
2020,02,01,08,09,3.70
2020,02,01,08,10,6.50
2020,02,01,08,11,8.90
2020,02,01,08,12,7.60
2020,02,01,08,13,4.50
2020,02,01,08,14,8.20
2020,02,01,08,15,7.50
2020,02,01,08,16,3.40
2020,02,01,08,17,5.60
2020,02,01,08,18,6.10
2020,02,01,08,19,2.10
2020,02,01,08,20,0.40
2020,02,01,08,21,6.10
2020,02,01,08,22,7.20
2020,02,01,08,23,5.70
2020,02,01,08,24,9.60
2020,02,01,08,25,9.10
2020,02,01,08,26,4.00
2020,02,01,08,27,6.40
2020,02,01,08,28,6.40
2020,02,01,08,29,6.40
2020,02,01,08,30,6.40
2020,02,01,08,31,6.40
2020,02,01,08,32,3.20
2020,02,01,08,33,4.60
2020,02,01,08,34,4.80
2020,02,01,08,35,4.80
2020,02,01,08,36,3.00
2020,02,01,08,37,2.50
2020,02,01,08,38,2.50
2020,02,01,08,39,5.00
2020,02,01,08,40,2.30
2020,02,01,08,41,2.20
2020,02,01,08,42,0.80
2020,02,01,08,43,1.70
2020,02,01,08,44,2.40
2020,02,01,08,45,0.30
2020,02,01,08,46,1.80
2020,02,01,08,47,4.40
2020,02,01,08,48,1.70
2020,02,01,08,49,2.00
2020,02,01,08,50,1.70
2020,02,01,08,51,4.50
2020,02,01,08,52,1.50
2020,02,01,08,53,1.00
2020,02,01,08,54,0.20
2020,02,01,08,55,1.00
2020,02,01,08,56,1.50
2020,02,01,08,57,0.80
2020,02,01,08,58,2.10
2020,02,01,08,59,2.00
2020,02,01,09,00,3.60
2020,02,01,09,01,3.80
2020,02,01,09,02,8.80
2020,02,01,09,03,8.70
2020,02,01,09,04,10.30
2020,02,01,09,05,9.70
2020,02,01,09,06,8.00
2020,02,01,09,07,8.20
2020,02,01,09,08,7.00
2020,02,01,09,09,8.50
2020,02,01,09,10,7.20
2020,02,01,09,11,5.70
2020,02,01,09,12,5.50
2020,02,01,09,13,4.50
2020,02,01,09,14,3.90
2020,02,01,09,15,2.60
2020,02,01,09,16,6.70
2020,02,01,09,17,5.00
2020,02,01,09,18,6.90
2020,02,01,09,19,6.40
2020,02,01,09,20,6.90
2020,02,01,09,21,6.10
2020,02,01,09,22,4.70
2020,02,01,09,23,1.70
2020,02,01,09,24,1.90
2020,02,01,09,25,2.30
2020,02,01,09,26,3.30
2020,02,01,09,27,3.10
2020,02,01,09,28,3.40
2020,02,01,09,29,2.60
2020,02,01,09,30,0.90
2020,02,01,09,31,2.00
2020,02,01,09,32,0.70
2020,02,01,09,33,0.80
2020,02,01,09,34,1.80
2020,02,01,09,35,3.00
2020,02,01,09,36,2.80
2020,02,01,09,37,5.60
2020,02,01,09,38,6.40
2020,02,01,09,39,5.60
2020,02,01,09,40,5.40
2020,02,01,09,41,5.30
2020,02,01,09,42,5.40
2020,02,01,09,43,6.20
2020,02,01,09,44,5.00
2020,02,01,09,45,2.60
2020,02,01,09,46,1.50
2020,02,01,09,47,1.80
2020,02,01,09,48,3.40
2020,02,01,09,49,3.90
2020,02,01,09,50,4.20
2020,02,01,09,51,4.50
2020,02,01,09,52,4.30
2020,02,01,09,53,3.20
2020,02,01,09,54,5.40
2020,02,01,09,55,4.20
2020,02,01,09,56,3.10
2020,02,01,09,57,1.00
2020,02,01,09,58,3.70
2020,02,01,09,59,3.60
2020,02,01,10,00,3.10
2020,02,01,10,01,3.40
2020,02,01,10,02,3.70
2020,02,01,10,03,4.00
2020,02,01,10,04,2.10
2020,02,01,10,05,2.30
2020,02,01,10,06,3.40
2020,02,01,10,07,0.90
2020,02,01,10,08,0.20
2020,02,01,10,09,0.70
2020,02,01,10,10,0.20
2020,02,01,10,11,3.10
2020,02,01,10,12,3.90
2020,02,01,10,13,4.90
2020,02,01,10,14,5.90
2020,02,01,10,15,8.20
2020,02,01,10,16,7.70
2020,02,01,10,17,10.50
2020,02,01,10,18,8.10
2020,02,01,10,19,12.20
2020,02,01,10,20,7.30
2020,02,01,10,21,8.70
2020,02,01,10,22,9.20
2020,02,01,10,23,6.10
2020,02,01,10,24,6.40
2020,02,01,10,25,7.10
2020,02,01,10,26,7.20
2020,02,01,10,27,7.70
2020,02,01,10,28,9.60
2020,02,01,10,29,10.10
2020,02,01,10,30,5.60
2020,02,01,10,31,1.50
2020,02,01,10,32,2.60
2020,02,01,10,33,0.40
2020,02,01,10,34,5.00
2020,02,01,10,35,5.60
2020,02,01,10,36,3.40
2020,02,01,10,37,11.50
2020,02,01,10,38,10.80
2020,02,01,10,39,9.70
2020,02,01,10,40,11.60
2020,02,01,10,41,7.70
2020,02,01,10,42,12.50
2020,02,01,10,43,10.00
2020,02,01,10,44,12.80
2020,02,01,10,45,15.30
2020,02,01,10,46,10.70
2020,02,01,10,47,16.20
2020,02,01,10,48,14.50
2020,02,01,10,49,10.00
2020,02,01,10,50,17.10
2020,02,01,10,51,15.90
2020,02,01,10,52,13.60
2020,02,01,10,53,16.20
2020,02,01,10,54,11.50
2020,02,01,10,55,8.70
2020,02,01,10,56,3.50
2020,02,01,10,57,6.50
2020,02,01,10,58,6.90
2020,02,01,10,59,7.80
2020,02,01,11,00,8.30
2020,02,01,11,01,11.50
2020,02,01,11,02,7.00
2020,02,01,11,03,10.00
2020,02,01,11,04,9.90
2020,02,01,11,05,9.30
2020,02,01,11,06,5.10
2020,02,01,11,07,4.40
2020,02,01,11,08,6.40
2020,02,01,11,09,8.30
2020,02,01,11,10,7.70
2020,02,01,11,11,5.30
2020,02,01,11,12,7.20
2020,02,01,11,13,7.80
2020,02,01,11,14,10.80
2020,02,01,11,15,13.30
2020,02,01,11,16,6.70
2020,02,01,11,17,5.60
2020,02,01,11,18,5.20
2020,02,01,11,19,8.60
2020,02,01,11,20,9.70
2020,02,01,11,21,8.50
2020,02,01,11,22,8.00
2020,02,01,11,23,10.30
2020,02,01,11,24,6.80
2020,02,01,11,25,10.70
2020,02,01,11,26,10.10
2020,02,01,11,27,11.20
2020,02,01,11,28,9.80
2020,02,01,11,29,10.90
2020,02,01,11,30,12.10
2020,02,01,11,31,8.70
2020,02,01,11,32,7.80
2020,02,01,11,33,5.80
2020,02,01,11,34,10.20
2020,02,01,11,35,11.30
2020,02,01,11,36,9.30
2020,02,01,11,37,8.70
2020,02,01,11,38,10.90
2020,02,01,11,39,9.70
2020,02,01,11,40,7.10
2020,02,01,11,41,5.40
2020,02,01,11,42,5.30
2020,02,01,11,43,5.10
2020,02,01,11,44,7.40
2020,02,01,11,45,4.90
2020,02,01,11,46,3.80
2020,02,01,11,47,4.70
2020,02,01,11,48,5.10
2020,02,01,11,49,8.60
2020,02,01,11,50,5.30
2020,02,01,11,51,7.00
2020,02,01,11,52,9.20
2020,02,01,11,53,3.80
2020,02,01,11,54,0.20
2020,02,01,11,55,5.30
2020,02,01,11,56,2.80
2020,02,01,11,57,4.40
2020,02,01,11,58,4.30
2020,02,01,11,59,4.50
2020,02,01,12,00,4.40
2020,02,01,12,01,6.30
2020,02,01,12,02,8.10
2020,02,01,12,03,5.20
2020,02,01,12,04,6.00
2020,02,01,12,05,5.10
2020,02,01,12,06,6.20
2020,02,01,12,07,1.50
2020,02,01,12,08,0.00
2020,02,01,12,09,3.10
2020,02,01,12,10,0.00
2020,02,01,12,11,0.00
2020,02,01,12,12,5.90
2020,02,01,12,13,3.60
2020,02,01,12,14,5.60
2020,02,01,12,15,6.80
2020,02,01,12,16,5.80
2020,02,01,12,17,7.00
2020,02,01,12,18,4.90
2020,02,01,12,19,1.20
2020,02,01,12,20,0.10
2020,02,01,12,21,0.00
2020,02,01,12,22,5.00
2020,02,01,12,23,6.30
2020,02,01,12,24,6.10
2020,02,01,12,25,7.80
2020,02,01,12,26,8.10
2020,02,01,12,27,5.60
2020,02,01,12,28,6.80
2020,02,01,12,29,6.00
2020,02,01,12,30,7.50
2020,02,01,12,31,4.50
2020,02,01,12,32,3.60
2020,02,01,12,33,5.30
2020,02,01,12,34,1.40
2020,02,01,12,35,1.00
2020,02,01,12,36,6.10
2020,02,01,12,37,5.70
2020,02,01,12,38,5.50
2020,02,01,12,39,5.40
2020,02,01,12,40,7.50
2020,02,01,12,41,6.70
2020,02,01,12,42,7.10
2020,02,01,12,43,5.40
2020,02,01,12,44,8.90
2020,02,01,12,45,15.30
2020,02,01,12,46,11.00
2020,02,01,12,47,7.50
2020,02,01,12,48,8.70
2020,02,01,12,49,12.40
2020,02,01,12,50,12.70
2020,02,01,12,51,7.70
2020,02,01,12,52,11.90
2020,02,01,12,53,11.60
2020,02,01,12,54,12.10
2020,02,01,12,55,8.40
2020,02,01,12,56,7.90
2020,02,01,12,57,8.80
2020,02,01,12,58,8.40
2020,02,01,12,59,6.70
2020,02,01,13,00,6.60
2020,02,01,13,01,6.40
2020,02,01,13,02,7.30
2020,02,01,13,03,7.50
2020,02,01,13,04,5.70
2020,02,01,13,05,7.70
2020,02,01,13,06,8.60
2020,02,01,13,07,9.70
2020,02,01,13,08,8.50
2020,02,01,13,09,7.70
2020,02,01,13,10,6.40
2020,02,01,13,11,7.20
2020,02,01,13,12,9.00
2020,02,01,13,13,5.70
2020,02,01,13,14,8.80
2020,02,01,13,15,9.00
2020,02,01,13,16,6.20
2020,02,01,13,17,4.20
2020,02,01,13,18,8.40
2020,02,01,13,19,8.30
2020,02,01,13,20,8.00
2020,02,01,13,21,10.60
2020,02,01,13,22,6.20
2020,02,01,13,23,12.50
2020,02,01,13,24,10.00
2020,02,01,13,25,8.00
2020,02,01,13,26,13.60
2020,02,01,13,27,12.40
2020,02,01,13,28,6.80
2020,02,01,13,29,10.50
2020,02,01,13,30,11.10
2020,02,01,13,31,9.40
2020,02,01,13,32,11.30
2020,02,01,13,33,14.60
2020,02,01,13,34,13.60
2020,02,01,13,35,13.40
2020,02,01,13,36,8.60
2020,02,01,13,37,5.70
2020,02,01,13,38,3.30
2020,02,01,13,39,10.60
2020,02,01,13,40,6.80
2020,02,01,13,41,5.90
2020,02,01,13,42,8.90
2020,02,01,13,43,5.10
2020,02,01,13,44,9.70
2020,02,01,13,45,8.40
2020,02,01,13,46,7.90
2020,02,01,13,47,5.30
2020,02,01,13,48,8.70
2020,02,01,13,49,9.60
2020,02,01,13,50,10.60
2020,02,01,13,51,14.60
2020,02,01,13,52,11.00
2020,02,01,13,53,11.30
2020,02,01,13,54,9.70
2020,02,01,13,55,8.40
2020,02,01,13,56,7.50
2020,02,01,13,57,11.40
2020,02,01,13,58,8.20
2020,02,01,13,59,7.60
2020,02,01,14,00,4.80
2020,02,01,14,01,4.10
2020,02,01,14,02,6.40
2020,02,01,14,03,1.90
2020,02,01,14,04,5.50
2020,02,01,14,05,7.70
2020,02,01,14,06,6.50
2020,02,01,14,07,13.90
2020,02,01,14,08,15.60
2020,02,01,14,09,11.00
2020,02,01,14,10,11.20
2020,02,01,14,11,11.20
2020,02,01,14,12,9.00
2020,02,01,14,13,8.30
2020,02,01,14,14,9.60
2020,02,01,14,15,11.50
2020,02,01,14,16,14.30
2020,02,01,14,17,13.70
2020,02,01,14,18,11.80
2020,02,01,14,19,12.30
2020,02,01,14,20,15.20
2020,02,01,14,21,13.80
2020,02,01,14,22,13.30
2020,02,01,14,23,7.40
2020,02,01,14,24,9.20
2020,02,01,14,25,14.00
2020,02,01,14,26,6.00
2020,02,01,14,27,6.40
2020,02,01,14,28,7.70
2020,02,01,14,29,10.30
2020,02,01,14,30,6.90
2020,02,01,14,31,4.30
2020,02,01,14,32,4.70
2020,02,01,14,33,7.80
2020,02,01,14,34,8.00
2020,02,01,14,35,6.40
2020,02,01,14,36,14.00
2020,02,01,14,37,7.00
2020,02,01,14,38,10.20
2020,02,01,14,39,9.70
2020,02,01,14,40,7.60
2020,02,01,14,41,10.00
2020,02,01,14,42,9.40
2020,02,01,14,43,11.00
2020,02,01,14,44,10.00
2020,02,01,14,45,9.40
2020,02,01,14,46,10.70
2020,02,01,14,47,8.30
2020,02,01,14,48,7.60
2020,02,01,14,49,10.40
2020,02,01,14,50,11.50
2020,02,01,14,51,7.30
2020,02,01,14,52,10.30
2020,02,01,14,53,9.40
2020,02,01,14,54,5.10
2020,02,01,14,55,8.00
2020,02,01,14,56,3.40
2020,02,01,14,57,8.90
2020,02,01,14,58,9.10
2020,02,01,14,59,5.10
2020,02,01,15,00,6.70
2020,02,01,15,01,9.40
2020,02,01,15,02,12.60
2020,02,01,15,03,6.50
2020,02,01,15,04,7.10
2020,02,01,15,05,10.40
2020,02,01,15,06,13.50
2020,02,01,15,07,11.70
2020,02,01,15,08,12.90
2020,02,01,15,09,7.90
2020,02,01,15,10,11.10
2020,02,01,15,11,10.50
2020,02,01,15,12,11.70
2020,02,01,15,13,6.40
2020,02,01,15,14,13.20
2020,02,01,15,15,11.20
2020,02,01,15,16,8.50
2020,02,01,15,17,14.10
2020,02,01,15,18,16.50
2020,02,01,15,19,14.30
2020,02,01,15,20,12.20
2020,02,01,15,21,10.30
2020,02,01,15,22,9.00
2020,02,01,15,23,13.10
2020,02,01,15,24,12.40
2020,02,01,15,25,6.40
2020,02,01,15,26,10.80
2020,02,01,15,27,10.50
2020,02,01,15,28,16.10
2020,02,01,15,29,16.30
2020,02,01,15,30,8.50
2020,02,01,15,31,11.20
2020,02,01,15,32,11.90
2020,02,01,15,33,18.50
2020,02,01,15,34,14.30
2020,02,01,15,35,15.00
2020,02,01,15,36,10.70
2020,02,01,15,37,8.80
2020,02,01,15,38,10.00
2020,02,01,15,39,8.50
2020,02,01,15,40,7.10
2020,02,01,15,41,6.10
2020,02,01,15,42,5.90
2020,02,01,15,43,8.30
2020,02,01,15,44,8.90
2020,02,01,15,45,7.40
2020,02,01,15,46,8.20
2020,02,01,15,47,9.70
2020,02,01,15,48,11.10
2020,02,01,15,49,15.40
2020,02,01,15,50,10.80
2020,02,01,15,51,16.20
2020,02,01,15,52,16.60
2020,02,01,15,53,14.30
2020,02,01,15,54,14.90
2020,02,01,15,55,11.30
2020,02,01,15,56,10.00
2020,02,01,15,57,13.90
2020,02,01,15,58,10.00
2020,02,01,15,59,9.30
2020,02,01,16,00,8.10
2020,02,01,16,01,9.30
2020,02,01,16,02,11.30
2020,02,01,16,03,12.40
2020,02,01,16,04,13.50
2020,02,01,16,05,19.20
2020,02,01,16,06,15.10
2020,02,01,16,07,9.40
2020,02,01,16,08,13.00
2020,02,01,16,09,8.90
2020,02,01,16,10,7.80
2020,02,01,16,11,12.00
2020,02,01,16,12,8.00
2020,02,01,16,13,10.30
2020,02,01,16,14,6.20
2020,02,01,16,15,9.60
2020,02,01,16,16,10.30
2020,02,01,16,17,6.70
2020,02,01,16,18,10.50
2020,02,01,16,19,7.70
2020,02,01,16,20,5.40
2020,02,01,16,21,2.90
2020,02,01,16,22,8.90
2020,02,01,16,23,9.40
2020,02,01,16,24,7.80
2020,02,01,16,25,9.20
2020,02,01,16,26,4.50
2020,02,01,16,27,5.80
2020,02,01,16,28,4.30
2020,02,01,16,29,10.00
2020,02,01,16,30,7.50
2020,02,01,16,31,3.90
2020,02,01,16,32,8.20
2020,02,01,16,33,7.20
2020,02,01,16,34,6.20
2020,02,01,16,35,7.30
2020,02,01,16,36,8.40
2020,02,01,16,37,12.10
2020,02,01,16,38,7.60
2020,02,01,16,39,3.40
2020,02,01,16,40,4.30
2020,02,01,16,41,2.50
2020,02,01,16,42,4.20
2020,02,01,16,43,4.70
2020,02,01,16,44,6.80
2020,02,01,16,45,5.40
2020,02,01,16,46,3.50
2020,02,01,16,47,6.40
2020,02,01,16,48,7.10
2020,02,01,16,49,6.60
2020,02,01,16,50,4.60
2020,02,01,16,51,8.80
2020,02,01,16,52,5.60
2020,02,01,16,53,5.10
2020,02,01,16,54,6.70
2020,02,01,16,55,3.90
2020,02,01,16,56,3.90
2020,02,01,16,57,6.70
2020,02,01,16,58,5.90
2020,02,01,16,59,7.20
2020,02,01,17,00,5.60
2020,02,01,17,01,6.80
2020,02,01,17,02,6.50
2020,02,01,17,03,6.90
2020,02,01,17,04,6.20
2020,02,01,17,05,6.10
2020,02,01,17,06,8.10
2020,02,01,17,07,6.80
2020,02,01,17,08,5.50
2020,02,01,17,09,4.30
2020,02,01,17,10,6.00
2020,02,01,17,11,4.70
2020,02,01,17,12,4.10
2020,02,01,17,13,5.90
2020,02,01,17,14,6.00
2020,02,01,17,15,5.80
2020,02,01,17,16,5.10
2020,02,01,17,17,5.60
2020,02,01,17,18,8.30
2020,02,01,17,19,8.70
2020,02,01,17,20,5.80
2020,02,01,17,21,6.90
2020,02,01,17,22,6.80
2020,02,01,17,23,7.60
2020,02,01,17,24,4.00
2020,02,01,17,25,6.20
2020,02,01,17,26,7.20
2020,02,01,17,27,5.10
2020,02,01,17,28,4.70
2020,02,01,17,29,3.60
2020,02,01,17,30,5.40
2020,02,01,17,31,4.40
2020,02,01,17,32,3.00
2020,02,01,17,33,4.70
2020,02,01,17,34,7.10
2020,02,01,17,35,4.10
2020,02,01,17,36,5.60
2020,02,01,17,37,5.50
2020,02,01,17,38,6.10
2020,02,01,17,39,5.30
2020,02,01,17,40,4.10
2020,02,01,17,41,6.40
2020,02,01,17,42,4.60
2020,02,01,17,43,6.30
2020,02,01,17,44,6.70
2020,02,01,17,45,6.50
2020,02,01,17,46,4.30
2020,02,01,17,47,6.20